Time,TemperatureF,DewpointF,PressureIn,WindDirection,WindDirectionDegrees,WindSpeedMPH,WindSpeedGustMPH,Humidity,HourlyPrecipIn,Conditions,Clouds,dailyrainin,SoftwareType,DateUTC
2013-01-09 00:00:00,70.4,67.6,30.18,ENE,71,1.0,1.0,91,0.00,,,0.00,Wunderground v.1.13,2013-01-09 05:00:00,
2013-01-09 00:04:00,70.5,67.7,30.18,ENE,71,1.0,5.0,91,0.00,,,0.00,Wunderground v.1.13,2013-01-09 05:04:00,
2013-01-09 00:08:00,70.6,67.8,30.18,ENE,75,1.0,1.0,91,0.00,,,0.00,Wunderground v.1.13,2013-01-09 05:08:00,
2013-01-09 00:14:00,70.7,67.6,30.18,ENE,78,0.0,0.0,90,0.00,,,0.00,Wunderground v.1.13,2013-01-09 05:14:00,
2013-01-09 00:20:00,70.8,67.7,30.18,East,79,0.0,0.0,90,0.00,,,0.00,Wunderground v.1.13,2013-01-09 05:20:00,
2013-01-09 00:26:00,70.8,67.7,30.18,East,87,0.0,0.0,90,0.00,,,0.00,Wunderground v.1.13,2013-01-09 05:26:00,
2013-01-09 00:32:00,70.9,67.8,30.18,East,86,0.0,0.0,90,0.00,,,0.00,Wunderground v.1.13,2013-01-09 05:32:00,
2013-01-09 00:38:00,70.8,67.7,30.18,East,82,0.0,0.0,90,0.00,,,0.00,Wunderground v.1.13,2013-01-09 05:38:00,
2013-01-09 00:44:00,70.7,67.6,30.18,East,82,0.0,0.0,90,0.00,,,0.00,Wunderground v.1.13,2013-01-09 05:44:00,
2013-01-09 00:50:00,70.5,67.4,30.18,East,82,0.0,0.0,90,0.00,,,0.00,Wunderground v.1.13,2013-01-09 05:50:00,
2013-01-09 00:56:00,70.3,67.2,30.18,East,82,0.0,0.0,90,0.00,,,0.00,Wunderground v.1.13,2013-01-09 05:56:00,
2013-01-09 01:02:00,70.2,67.4,30.18,East,82,0.0,5.0,91,0.00,,,0.00,Wunderground v.1.13,2013-01-09 06:02:00,
2013-01-09 01:08:00,70.1,67.3,30.19,East,82,0.0,0.0,91,0.00,,,0.00,Wunderground v.1.13,2013-01-09 06:08:00,
2013-01-09 01:14:00,70.0,67.3,30.19,East,82,0.0,0.0,91,0.00,,,0.00,Wunderground v.1.13,2013-01-09 06:14:00,
2013-01-09 01:20:00,70.0,67.3,30.19,East,82,0.0,0.0,91,0.00,,,0.00,Wunderground v.1.13,2013-01-09 06:20:00,
2013-01-09 01:26:00,69.9,67.5,30.19,East,82,0.0,0.0,92,0.00,,,0.00,Wunderground v.1.13,2013-01-09 06:26:00,
2013-01-09 01:32:00,70.0,67.6,30.19,East,82,0.0,0.0,92,0.00,,,0.00,Wunderground v.1.13,2013-01-09 06:32:00,
2013-01-09 01:38:00,70.0,67.6,30.19,East,82,0.0,0.0,92,0.00,,,0.00,Wunderground v.1.13,2013-01-09 06:38:00,
2013-01-09 01:44:00,70.0,67.6,30.19,East,82,0.0,0.0,92,0.00,,,0.00,Wunderground v.1.13,2013-01-09 06:44:00,
2013-01-09 01:50:00,69.9,67.5,30.19,East,82,0.0,0.0,92,0.00,,,0.00,Wunderground v.1.13,2013-01-09 06:50:00,
2013-01-09 01:56:00,69.8,67.4,30.19,East,82,0.0,0.0,92,0.00,,,0.00,Wunderground v.1.13,2013-01-09 06:56:00,
2013-01-09 02:02:00,69.5,67.1,30.18,East,82,0.0,0.0,92,0.00,,,0.00,Wunderground v.1.13,2013-01-09 07:02:00,
2013-01-09 02:08:00,69.2,66.8,30.19,East,82,0.0,0.0,92,0.00,,,0.00,Wunderground v.1.13,2013-01-09 07:08:00,
2013-01-09 02:14:00,69.0,66.6,30.19,East,82,0.0,0.0,92,0.00,,,0.00,Wunderground v.1.13,2013-01-09 07:14:00,
2013-01-09 02:20:00,68.7,66.3,30.18,East,82,0.0,0.0,92,0.00,,,0.00,Wunderground v.1.13,2013-01-09 07:20:00,
2013-01-09 02:26:00,68.6,66.5,30.19,East,82,0.0,0.0,93,0.00,,,0.00,Wunderground v.1.13,2013-01-09 07:26:00,
2013-01-09 02:32:00,68.5,66.4,30.18,East,82,0.0,0.0,93,0.00,,,0.00,Wunderground v.1.13,2013-01-09 07:32:00,
2013-01-09 02:38:00,68.5,66.4,30.18,East,82,0.0,0.0,93,0.00,,,0.00,Wunderground v.1.13,2013-01-09 07:38:00,
2013-01-09 02:44:00,68.5,66.4,30.18,East,82,0.0,0.0,93,0.00,,,0.00,Wunderground v.1.13,2013-01-09 07:44:00,
2013-01-09 02:50:00,68.5,66.4,30.18,East,82,0.0,0.0,93,0.00,,,0.00,Wunderground v.1.13,2013-01-09 07:50:00,
2013-01-09 02:56:00,68.5,66.7,30.18,East,82,0.0,0.0,94,0.00,,,0.00,Wunderground v.1.13,2013-01-09 07:56:00,
2013-01-09 03:02:00,68.4,66.6,30.18,East,82,0.0,0.0,94,0.00,,,0.00,Wunderground v.1.13,2013-01-09 08:02:00,
2013-01-09 03:08:00,68.3,66.5,30.18,East,82,0.0,0.0,94,0.00,,,0.00,Wunderground v.1.13,2013-01-09 08:08:00,
2013-01-09 03:14:00,68.4,66.6,30.18,East,82,0.0,0.0,94,0.00,,,0.00,Wunderground v.1.13,2013-01-09 08:14:00,
2013-01-09 03:20:00,68.4,66.6,30.18,East,82,0.0,0.0,94,0.00,,,0.00,Wunderground v.1.13,2013-01-09 08:20:00,
2013-01-09 03:26:00,68.2,66.4,30.18,East,82,0.0,0.0,94,0.00,,,0.00,Wunderground v.1.13,2013-01-09 08:26:00,
2013-01-09 03:32:00,68.1,66.3,30.18,East,82,0.0,0.0,94,0.00,,,0.00,Wunderground v.1.13,2013-01-09 08:32:00,
2013-01-09 03:38:00,68.0,66.2,30.18,East,82,0.0,0.0,94,0.00,,,0.00,Wunderground v.1.13,2013-01-09 08:38:00,
2013-01-09 03:44:00,67.9,66.1,30.18,East,82,0.0,0.0,94,0.00,,,0.00,Wunderground v.1.13,2013-01-09 08:44:00,
2013-01-09 03:50:00,67.9,66.1,30.18,East,82,0.0,0.0,94,0.00,,,0.00,Wunderground v.1.13,2013-01-09 08:50:00,
2013-01-09 03:56:00,67.9,66.4,30.18,East,82,0.0,0.0,95,0.00,,,0.00,Wunderground v.1.13,2013-01-09 08:56:00,
2013-01-09 04:02:00,68.0,66.5,30.18,East,82,0.0,1.0,95,0.00,,,0.00,Wunderground v.1.13,2013-01-09 09:02:00,
2013-01-09 04:08:00,68.1,66.6,30.18,East,82,0.0,0.0,95,0.00,,,0.00,Wunderground v.1.13,2013-01-09 09:08:00,
2013-01-09 04:14:00,68.2,66.7,30.18,East,82,0.0,0.0,95,0.00,,,0.00,Wunderground v.1.13,2013-01-09 09:14:00,
2013-01-09 04:20:00,68.1,66.6,30.18,East,82,0.0,0.0,95,0.00,,,0.00,Wunderground v.1.13,2013-01-09 09:20:00,
2013-01-09 04:26:00,68.2,66.7,30.18,ENE,76,0.0,0.0,95,0.00,,,0.00,Wunderground v.1.13,2013-01-09 09:26:00,
2013-01-09 04:32:00,68.2,66.7,30.18,ENE,75,0.0,0.0,95,0.00,,,0.00,Wunderground v.1.13,2013-01-09 09:32:00,
2013-01-09 04:38:00,68.3,67.1,30.18,ENE,75,0.0,0.0,96,0.00,,,0.00,Wunderground v.1.13,2013-01-09 09:38:00,
2013-01-09 04:44:00,68.4,67.2,30.17,ENE,75,0.0,2.0,96,0.00,,,0.00,Wunderground v.1.13,2013-01-09 09:44:00,
2013-01-09 04:50:00,68.4,67.2,30.17,ENE,75,1.0,1.0,96,0.00,,,0.00,Wunderground v.1.13,2013-01-09 09:50:00,
2013-01-09 04:56:00,68.2,66.7,30.17,ENE,75,1.0,1.0,95,0.00,,,0.00,Wunderground v.1.13,2013-01-09 09:56:00,
2013-01-09 05:02:00,68.0,66.8,30.17,ENE,75,0.0,1.0,96,0.00,,,0.00,Wunderground v.1.13,2013-01-09 10:02:00,
2013-01-09 05:08:00,68.0,66.8,30.17,ENE,75,0.0,0.0,96,0.00,,,0.00,Wunderground v.1.13,2013-01-09 10:08:00,
2013-01-09 05:14:00,67.9,66.7,30.18,ENE,75,1.0,1.0,96,0.00,,,0.00,Wunderground v.1.13,2013-01-09 10:14:00,
2013-01-09 05:20:00,67.8,66.6,30.18,ENE,75,0.0,0.0,96,0.00,,,0.00,Wunderground v.1.13,2013-01-09 10:20:00,
2013-01-09 05:26:00,67.7,66.5,30.18,ENE,75,0.0,0.0,96,0.00,,,0.00,Wunderground v.1.13,2013-01-09 10:26:00,
2013-01-09 05:32:00,67.7,66.5,30.18,ENE,75,0.0,0.0,96,0.00,,,0.00,Wunderground v.1.13,2013-01-09 10:32:00,
2013-01-09 05:38:00,67.7,66.5,30.18,ENE,75,0.0,0.0,96,0.00,,,0.00,Wunderground v.1.13,2013-01-09 10:38:00,
2013-01-09 05:44:00,67.8,66.6,30.18,ENE,75,0.0,0.0,96,0.00,,,0.00,Wunderground v.1.13,2013-01-09 10:44:00,
2013-01-09 05:50:00,67.9,66.7,30.19,ENE,75,0.0,0.0,96,0.00,,,0.00,Wunderground v.1.13,2013-01-09 10:50:00,
2013-01-09 05:56:00,67.9,66.7,30.19,ENE,75,0.0,0.0,96,0.00,,,0.00,Wunderground v.1.13,2013-01-09 10:56:00,
2013-01-09 06:02:00,67.9,66.7,30.19,ENE,75,0.0,4.0,96,0.00,,,0.00,Wunderground v.1.13,2013-01-09 11:02:00,
2013-01-09 06:08:00,67.9,66.7,30.19,ENE,75,0.0,0.0,96,0.00,,,0.00,Wunderground v.1.13,2013-01-09 11:08:00,
2013-01-09 06:14:00,67.8,66.6,30.19,ENE,75,0.0,0.0,96,0.00,,,0.00,Wunderground v.1.13,2013-01-09 11:14:00,
2013-01-09 06:20:00,67.8,66.6,30.19,ENE,75,0.0,0.0,96,0.00,,,0.00,Wunderground v.1.13,2013-01-09 11:20:00,
2013-01-09 06:26:00,67.8,66.6,30.20,ENE,75,0.0,0.0,96,0.00,,,0.00,Wunderground v.1.13,2013-01-09 11:26:00,
2013-01-09 06:32:00,67.9,67.0,30.20,ENE,75,0.0,0.0,97,0.00,,,0.00,Wunderground v.1.13,2013-01-09 11:32:00,
2013-01-09 06:38:00,68.1,66.9,30.20,ENE,75,0.0,0.0,96,0.00,,,0.00,Wunderground v.1.13,2013-01-09 11:38:00,
2013-01-09 06:44:00,68.3,67.4,30.20,ENE,75,0.0,0.0,97,0.00,,,0.00,Wunderground v.1.13,2013-01-09 11:44:00,
2013-01-09 06:50:00,68.5,67.6,30.20,ENE,75,0.0,0.0,97,0.00,,,0.00,Wunderground v.1.13,2013-01-09 11:50:00,
2013-01-09 06:56:00,68.6,67.7,30.20,ENE,75,0.0,0.0,97,0.00,,,0.00,Wunderground v.1.13,2013-01-09 11:56:00,
2013-01-09 07:02:00,68.6,67.7,30.20,ENE,75,0.0,0.0,97,0.00,,,0.00,Wunderground v.1.13,2013-01-09 12:02:00,
2013-01-09 07:08:00,68.6,67.4,30.21,ENE,75,0.0,0.0,96,0.00,,,0.00,Wunderground v.1.13,2013-01-09 12:08:00,
2013-01-09 07:14:00,68.5,67.3,30.21,ENE,75,0.0,0.0,96,0.00,,,0.00,Wunderground v.1.13,2013-01-09 12:14:00,
2013-01-09 07:20:00,68.4,67.2,30.21,ENE,75,0.0,0.0,96,0.00,,,0.00,Wunderground v.1.13,2013-01-09 12:20:00,
2013-01-09 07:26:00,68.3,67.4,30.21,ENE,75,0.0,0.0,97,0.00,,,0.00,Wunderground v.1.13,2013-01-09 12:26:00,
2013-01-09 07:32:00,68.3,67.4,30.21,ENE,75,0.0,0.0,97,0.00,,,0.00,Wunderground v.1.13,2013-01-09 12:32:00,
2013-01-09 07:38:00,68.3,67.1,30.22,ENE,75,0.0,0.0,96,0.00,,,0.00,Wunderground v.1.13,2013-01-09 12:38:00,
2013-01-09 07:44:00,68.5,67.6,30.22,ENE,75,0.0,0.0,97,0.00,,,0.00,Wunderground v.1.13,2013-01-09 12:44:00,
2013-01-09 07:50:00,68.6,67.7,30.22,ENE,75,0.0,0.0,97,0.00,,,0.00,Wunderground v.1.13,2013-01-09 12:50:00,
2013-01-09 07:56:00,68.8,67.9,30.22,ENE,75,0.0,0.0,97,0.00,,,0.00,Wunderground v.1.13,2013-01-09 12:56:00,
2013-01-09 08:02:00,68.9,68.0,30.23,ENE,75,0.0,0.0,97,0.00,,,0.00,Wunderground v.1.13,2013-01-09 13:02:00,
2013-01-09 08:08:00,69.0,68.1,30.23,ENE,75,0.0,0.0,97,0.00,,,0.00,Wunderground v.1.13,2013-01-09 13:08:00,
2013-01-09 08:14:00,69.2,68.3,30.24,ENE,75,0.0,0.0,97,0.00,,,0.00,Wunderground v.1.13,2013-01-09 13:14:00,
2013-01-09 08:20:00,69.4,68.5,30.24,ENE,75,0.0,0.0,97,0.00,,,0.00,Wunderground v.1.13,2013-01-09 13:20:00,
2013-01-09 08:26:00,69.6,68.7,30.24,ENE,75,0.0,0.0,97,0.00,,,0.00,Wunderground v.1.13,2013-01-09 13:26:00,
2013-01-09 08:32:00,69.8,68.9,30.24,East,80,0.0,2.0,97,0.00,,,0.00,Wunderground v.1.13,2013-01-09 13:32:00,
2013-01-09 08:38:00,70.1,69.2,30.24,East,90,0.0,0.0,97,0.00,,,0.00,Wunderground v.1.13,2013-01-09 13:38:00,
2013-01-09 08:44:00,70.3,69.1,30.25,East,87,1.0,1.0,96,0.00,,,0.00,Wunderground v.1.13,2013-01-09 13:44:00,
2013-01-09 08:50:00,70.6,69.7,30.25,ENE,73,1.0,1.0,97,0.00,,,0.00,Wunderground v.1.13,2013-01-09 13:50:00,
2013-01-09 08:56:00,70.8,69.6,30.25,ESE,105,0.0,4.0,96,0.00,,,0.00,Wunderground v.1.13,2013-01-09 13:56:00,
2013-01-09 09:02:00,71.1,69.9,30.25,ESE,109,0.0,0.0,96,0.00,,,0.00,Wunderground v.1.13,2013-01-09 14:02:00,
2013-01-09 09:08:00,71.3,69.8,30.25,East,101,1.0,5.0,95,0.00,,,0.00,Wunderground v.1.13,2013-01-09 14:08:00,
2013-01-09 09:14:00,71.4,69.9,30.25,East,90,0.0,1.0,95,0.00,,,0.00,Wunderground v.1.13,2013-01-09 14:14:00,
2013-01-09 09:20:00,71.8,70.3,30.25,East,79,0.0,1.0,95,0.00,,,0.00,Wunderground v.1.13,2013-01-09 14:20:00,
2013-01-09 09:26:00,72.1,70.3,30.26,East,101,0.0,0.0,94,0.00,,,0.00,Wunderground v.1.13,2013-01-09 14:26:00,
2013-01-09 09:32:00,72.4,70.6,30.26,East,87,1.0,1.0,94,0.00,,,0.00,Wunderground v.1.13,2013-01-09 14:32:00,
2013-01-09 09:38:00,72.8,71.0,30.26,SE,128,0.0,1.0,94,0.00,,,0.00,Wunderground v.1.13,2013-01-09 14:38:00,
2013-01-09 09:44:00,73.2,70.7,30.26,East,95,1.0,4.0,92,0.00,,,0.00,Wunderground v.1.13,2013-01-09 14:44:00,
2013-01-09 09:50:00,73.4,70.9,30.26,East,86,1.0,1.0,92,0.00,,,0.00,Wunderground v.1.13,2013-01-09 14:50:00,
2013-01-09 09:56:00,73.6,70.8,30.27,ENE,76,2.0,2.0,91,0.00,,,0.00,Wunderground v.1.13,2013-01-09 14:56:00,
2013-01-09 10:02:00,73.9,71.1,30.27,SE,140,1.0,5.0,91,0.00,,,0.00,Wunderground v.1.13,2013-01-09 15:02:00,
2013-01-09 10:08:00,74.3,71.2,30.27,ENE,65,1.0,5.0,90,0.00,,,0.00,Wunderground v.1.13,2013-01-09 15:08:00,
2013-01-09 10:14:00,74.7,71.2,30.27,SE,141,1.0,6.0,89,0.00,,,0.00,Wunderground v.1.13,2013-01-09 15:14:00,
2013-01-09 10:20:00,75.0,71.2,30.27,ESE,104,1.0,2.0,88,0.00,,,0.00,Wunderground v.1.13,2013-01-09 15:20:00,
2013-01-09 10:26:00,75.1,71.3,30.27,SSE,153,1.0,4.0,88,0.00,,,0.00,Wunderground v.1.13,2013-01-09 15:26:00,
2013-01-09 10:32:00,75.5,71.4,30.28,East,91,3.0,6.0,87,0.00,,,0.00,Wunderground v.1.13,2013-01-09 15:32:00,
2013-01-09 10:38:00,75.9,71.8,30.27,ESE,119,3.0,3.0,87,0.00,,,0.00,Wunderground v.1.13,2013-01-09 15:38:00,
2013-01-09 10:44:00,76.9,72.0,30.27,ESE,110,1.0,2.0,85,0.00,,,0.00,Wunderground v.1.13,2013-01-09 15:44:00,
2013-01-09 10:50:00,77.1,71.5,30.27,SSE,150,4.0,8.0,83,0.00,,,0.00,Wunderground v.1.13,2013-01-09 15:50:00,
2013-01-09 10:56:00,77.3,71.7,30.27,SSE,161,5.0,5.0,83,0.00,,,0.00,Wunderground v.1.13,2013-01-09 15:56:00,
2013-01-09 11:02:00,77.3,71.4,30.27,SE,130,3.0,9.0,82,0.00,,,0.00,Wunderground v.1.13,2013-01-09 16:02:00,
2013-01-09 11:08:00,77.3,71.4,30.27,ESE,121,2.0,4.0,82,0.00,,,0.00,Wunderground v.1.13,2013-01-09 16:08:00,
2013-01-09 11:14:00,77.4,71.1,30.27,ESE,109,3.0,11.0,81,0.00,,,0.00,Wunderground v.1.13,2013-01-09 16:14:00,
2013-01-09 11:20:00,77.6,71.3,30.27,East,101,3.0,7.0,81,0.00,,,0.00,Wunderground v.1.13,2013-01-09 16:20:00,
2013-01-09 11:26:00,78.0,71.3,30.27,SE,145,3.0,6.0,80,0.00,,,0.00,Wunderground v.1.13,2013-01-09 16:26:00,
2013-01-09 11:32:00,78.4,71.7,30.26,SE,130,2.0,2.0,80,0.00,,,0.00,Wunderground v.1.13,2013-01-09 16:32:00,
2013-01-09 11:38:00,78.5,71.1,30.26,SE,140,1.0,5.0,78,0.00,,,0.00,Wunderground v.1.13,2013-01-09 16:38:00,
2013-01-09 11:44:00,78.5,71.4,30.26,ESE,107,2.0,7.0,79,0.00,,,0.00,Wunderground v.1.13,2013-01-09 16:44:00,
2013-01-09 11:50:00,78.8,71.4,30.26,SE,132,1.0,1.0,78,0.00,,,0.00,Wunderground v.1.13,2013-01-09 16:50:00,
2013-01-09 11:56:00,79.0,71.2,30.26,ESE,105,2.0,7.0,77,0.00,,,0.00,Wunderground v.1.13,2013-01-09 16:56:00,
2013-01-09 12:02:00,79.1,71.3,30.25,ESE,105,2.0,18.0,77,0.00,,,0.00,Wunderground v.1.13,2013-01-09 17:02:00,
2013-01-09 12:08:00,79.4,71.6,30.25,East,99,1.0,1.0,77,0.00,,,0.00,Wunderground v.1.13,2013-01-09 17:08:00,
2013-01-09 12:14:00,79.7,71.5,30.25,ESE,123,1.0,3.0,76,0.00,,,0.00,Wunderground v.1.13,2013-01-09 17:14:00,
2013-01-09 12:20:00,80.3,71.6,30.24,SE,125,1.0,2.0,75,0.00,,,0.00,Wunderground v.1.13,2013-01-09 17:20:00,
2013-01-09 12:26:00,80.3,71.6,30.24,East,99,1.0,1.0,75,0.00,,,0.00,Wunderground v.1.13,2013-01-09 17:26:00,
2013-01-09 12:32:00,80.3,71.3,30.24,East,80,2.0,4.0,74,0.00,,,0.00,Wunderground v.1.13,2013-01-09 17:32:00,
2013-01-09 12:38:00,80.4,71.3,30.23,ESE,103,2.0,2.0,74,0.00,,,0.00,Wunderground v.1.13,2013-01-09 17:38:00,
2013-01-09 12:44:00,80.4,70.9,30.23,ESE,104,2.0,5.0,73,0.00,,,0.00,Wunderground v.1.13,2013-01-09 17:44:00,
2013-01-09 12:50:00,80.6,71.1,30.23,SSE,153,4.0,4.0,73,0.00,,,0.00,Wunderground v.1.13,2013-01-09 17:50:00,
2013-01-09 12:56:00,81.2,70.9,30.22,ESE,110,3.0,3.0,71,0.00,,,0.00,Wunderground v.1.13,2013-01-09 17:56:00,
2013-01-09 13:02:00,81.4,71.1,30.23,SE,138,1.0,10.0,71,0.00,,,0.00,Wunderground v.1.13,2013-01-09 18:02:00,
2013-01-09 13:08:00,81.7,71.0,30.22,SSE,157,1.0,3.0,70,0.00,,,0.00,Wunderground v.1.13,2013-01-09 18:08:00,
2013-01-09 13:14:00,82.3,71.1,30.22,SSE,153,2.0,2.0,69,0.00,,,0.00,Wunderground v.1.13,2013-01-09 18:14:00,
2013-01-09 13:20:00,82.1,70.5,30.22,ESE,121,2.0,2.0,68,0.00,,,0.00,Wunderground v.1.13,2013-01-09 18:20:00,
2013-01-09 13:26:00,82.0,70.4,30.22,South,176,2.0,9.0,68,0.00,,,0.00,Wunderground v.1.13,2013-01-09 18:26:00,
2013-01-09 13:32:00,81.8,70.2,30.21,SE,134,4.0,4.0,68,0.00,,,0.00,Wunderground v.1.13,2013-01-09 18:32:00,
2013-01-09 13:38:00,82.1,70.1,30.21,SSE,167,2.0,3.0,67,0.00,,,0.00,Wunderground v.1.13,2013-01-09 18:38:00,
2013-01-09 13:42:00,82.3,70.2,30.21,East,98,1.0,1.0,67,0.00,,,0.00,Wunderground v.1.13,2013-01-09 18:42:00,
2013-01-09 13:44:00,82.4,70.3,30.21,South,178,2.0,2.0,67,0.00,,,0.00,Wunderground v.1.13,2013-01-09 18:44:00,
2013-01-09 13:48:00,82.3,69.8,30.21,SSE,160,2.0,3.0,66,0.00,,,0.00,Wunderground v.1.13,2013-01-09 18:48:00,
2013-01-09 13:50:00,82.4,70.3,30.21,SSE,160,2.0,3.0,67,0.00,,,0.00,Wunderground v.1.13,2013-01-09 18:50:00,
2013-01-09 13:56:00,82.9,70.4,30.21,South,173,1.0,2.0,66,0.00,,,0.00,Wunderground v.1.13,2013-01-09 18:56:00,
2013-01-09 14:02:00,83.1,70.1,30.21,East,84,1.0,13.0,65,0.00,,,0.00,Wunderground v.1.13,2013-01-09 19:02:00,
2013-01-09 14:06:00,82.9,69.9,30.21,SE,136,1.0,1.0,65,0.00,,,0.00,Wunderground v.1.13,2013-01-09 19:06:00,
2013-01-09 14:12:00,82.8,69.8,30.20,SE,136,1.0,1.0,65,0.00,,,0.00,Wunderground v.1.13,2013-01-09 19:12:00,
2013-01-09 14:18:00,82.9,69.5,30.20,ESE,120,1.0,1.0,64,0.00,,,0.00,Wunderground v.1.13,2013-01-09 19:18:00,
2013-01-09 14:24:00,83.1,69.7,30.20,East,98,0.0,0.0,64,0.00,,,0.00,Wunderground v.1.13,2013-01-09 19:24:00,
2013-01-09 14:30:00,82.9,69.5,30.20,SSE,156,0.0,2.0,64,0.00,,,0.00,Wunderground v.1.13,2013-01-09 19:30:00,
2013-01-09 14:36:00,83.0,69.6,30.20,ESE,121,1.0,1.0,64,0.00,,,0.00,Wunderground v.1.13,2013-01-09 19:36:00,
2013-01-09 14:42:00,83.1,68.7,30.20,SSE,157,0.0,0.0,62,0.00,,,0.00,Wunderground v.1.13,2013-01-09 19:42:00,
2013-01-09 14:48:00,83.0,69.1,30.20,SSE,164,1.0,1.0,63,0.00,,,0.00,Wunderground v.1.13,2013-01-09 19:48:00,
2013-01-09 14:54:00,83.4,69.9,30.20,South,171,1.0,1.0,64,0.00,,,0.00,Wunderground v.1.13,2013-01-09 19:54:00,
2013-01-09 15:00:00,83.6,69.2,30.20,SSE,153,0.0,2.0,62,0.00,,,0.00,Wunderground v.1.13,2013-01-09 20:00:00,
2013-01-09 15:06:00,83.8,69.4,30.20,East,85,0.0,0.0,62,0.00,,,0.00,Wunderground v.1.13,2013-01-09 20:06:00,
2013-01-09 15:12:00,83.7,69.8,30.20,ESE,114,0.0,0.0,63,0.00,,,0.00,Wunderground v.1.13,2013-01-09 20:12:00,
2013-01-09 15:18:00,83.7,69.8,30.19,East,96,0.0,0.0,63,0.00,,,0.00,Wunderground v.1.13,2013-01-09 20:18:00,
2013-01-09 15:24:00,83.4,69.5,30.20,NE,51,0.0,0.0,63,0.00,,,0.00,Wunderground v.1.13,2013-01-09 20:24:00,
2013-01-09 15:30:00,82.9,69.9,30.20,NE,53,0.0,1.0,65,0.00,,,0.00,Wunderground v.1.13,2013-01-09 20:30:00,
2013-01-09 15:36:00,82.5,69.5,30.20,NE,52,1.0,1.0,65,0.00,,,0.00,Wunderground v.1.13,2013-01-09 20:36:00,
2013-01-09 15:42:00,82.4,69.4,30.20,ENE,59,0.0,0.0,65,0.00,,,0.00,Wunderground v.1.13,2013-01-09 20:42:00,
2013-01-09 15:48:00,82.4,69.4,30.20,ENE,57,0.0,0.0,65,0.00,,,0.00,Wunderground v.1.13,2013-01-09 20:48:00,
2013-01-09 15:54:00,82.2,69.3,30.20,ENE,63,1.0,1.0,65,0.00,,,0.00,Wunderground v.1.13,2013-01-09 20:54:00,
2013-01-09 16:00:00,82.1,69.6,30.20,ENE,72,0.0,0.0,66,0.00,,,0.00,Wunderground v.1.13,2013-01-09 21:00:00,
2013-01-09 16:06:00,82.0,69.1,30.20,ENE,60,0.0,0.0,65,0.00,,,0.00,Wunderground v.1.13,2013-01-09 21:06:00,
2013-01-09 16:12:00,81.9,69.0,30.20,ENE,63,0.0,0.0,65,0.00,,,0.00,Wunderground v.1.13,2013-01-09 21:12:00,
2013-01-09 16:18:00,82.0,69.5,30.20,ENE,63,0.0,0.0,66,0.00,,,0.00,Wunderground v.1.13,2013-01-09 21:18:00,
2013-01-09 16:24:00,81.9,69.0,30.20,ENE,63,0.0,0.0,65,0.00,,,0.00,Wunderground v.1.13,2013-01-09 21:24:00,
2013-01-09 16:30:00,81.9,69.4,30.20,ENE,67,0.0,0.0,66,0.00,,,0.00,Wunderground v.1.13,2013-01-09 21:30:00,
2013-01-09 16:36:00,81.9,69.4,30.20,ENE,67,0.0,0.0,66,0.00,,,0.00,Wunderground v.1.13,2013-01-09 21:36:00,
2013-01-09 16:42:00,82.0,69.5,30.20,East,80,0.0,0.0,66,0.00,,,0.00,Wunderground v.1.13,2013-01-09 21:42:00,
2013-01-09 16:48:00,82.0,69.5,30.20,ENE,69,0.0,0.0,66,0.00,,,0.00,Wunderground v.1.13,2013-01-09 21:48:00,
2013-01-09 16:54:00,81.8,69.3,30.20,ENE,71,0.0,0.0,66,0.00,,,0.00,Wunderground v.1.13,2013-01-09 21:54:00,
2013-01-09 17:00:00,81.4,69.4,30.20,ENE,71,0.0,0.0,67,0.00,,,0.00,Wunderground v.1.13,2013-01-09 22:00:00,
2013-01-09 17:06:00,81.0,69.0,30.20,ENE,71,0.0,0.0,67,0.00,,,0.00,Wunderground v.1.13,2013-01-09 22:06:00,
2013-01-09 17:12:00,80.6,69.1,30.20,ENE,71,0.0,0.0,68,0.00,,,0.00,Wunderground v.1.13,2013-01-09 22:12:00,
2013-01-09 17:18:00,80.2,69.1,30.20,ENE,71,0.0,0.0,69,0.00,,,0.00,Wunderground v.1.13,2013-01-09 22:18:00,
2013-01-09 17:24:00,79.9,68.8,30.20,ENE,75,0.0,0.0,69,0.00,,,0.00,Wunderground v.1.13,2013-01-09 22:24:00,
2013-01-09 17:30:00,79.6,69.0,30.20,ENE,75,0.0,0.0,70,0.00,,,0.00,Wunderground v.1.13,2013-01-09 22:30:00,
2013-01-09 17:36:00,79.3,69.1,30.20,ENE,75,0.0,0.0,71,0.00,,,0.00,Wunderground v.1.13,2013-01-09 22:36:00,
2013-01-09 17:42:00,79.1,69.3,30.20,ENE,75,0.0,0.0,72,0.00,,,0.00,Wunderground v.1.13,2013-01-09 22:42:00,
2013-01-09 17:48:00,78.7,68.9,30.20,ENE,75,0.0,0.0,72,0.00,,,0.00,Wunderground v.1.13,2013-01-09 22:48:00,
2013-01-09 17:54:00,78.5,68.3,30.20,ENE,75,0.0,0.0,71,0.00,,,0.00,Wunderground v.1.13,2013-01-09 22:54:00,
2013-01-09 18:00:00,78.5,68.3,30.21,ENE,75,0.0,0.0,71,0.00,,,0.00,Wunderground v.1.13,2013-01-09 23:00:00,
2013-01-09 18:06:00,78.5,67.9,30.21,ENE,75,0.0,0.0,70,0.00,,,0.00,Wunderground v.1.13,2013-01-09 23:06:00,
2013-01-09 18:12:00,78.5,67.9,30.21,ENE,75,0.0,0.0,70,0.00,,,0.00,Wunderground v.1.13,2013-01-09 23:12:00,
2013-01-09 18:18:00,78.3,67.7,30.22,ENE,75,0.0,0.0,70,0.00,,,0.00,Wunderground v.1.13,2013-01-09 23:18:00,
2013-01-09 18:24:00,78.2,67.6,30.22,ENE,75,0.0,0.0,70,0.00,,,0.00,Wunderground v.1.13,2013-01-09 23:24:00,
2013-01-09 18:30:00,78.0,67.8,30.22,ENE,75,0.0,0.0,71,0.00,,,0.00,Wunderground v.1.13,2013-01-09 23:30:00,
2013-01-09 18:36:00,77.8,67.6,30.22,ENE,75,0.0,0.0,71,0.00,,,0.00,Wunderground v.1.13,2013-01-09 23:36:00,
2013-01-09 18:42:00,77.5,67.4,30.22,ENE,75,0.0,0.0,71,0.00,,,0.00,Wunderground v.1.13,2013-01-09 23:42:00,
2013-01-09 18:48:00,77.2,67.5,30.23,ENE,75,0.0,0.0,72,0.00,,,0.00,Wunderground v.1.13,2013-01-09 23:48:00,
2013-01-09 18:54:00,76.8,67.5,30.22,ENE,75,0.0,0.0,73,0.00,,,0.00,Wunderground v.1.13,2013-01-09 23:54:00,
2013-01-09 19:00:00,76.4,67.5,30.22,ENE,75,0.0,0.0,74,0.00,,,0.00,Wunderground v.1.13,2013-01-10 00:00:00,
2013-01-09 19:06:00,76.2,67.7,30.23,ENE,75,0.0,0.0,75,0.00,,,0.00,Wunderground v.1.13,2013-01-10 00:06:00,
2013-01-09 19:12:00,75.9,67.4,30.23,ENE,75,0.0,0.0,75,0.00,,,0.00,Wunderground v.1.13,2013-01-10 00:12:00,
2013-01-09 19:18:00,75.8,66.9,30.22,ENE,75,0.0,0.0,74,0.00,,,0.00,Wunderground v.1.13,2013-01-10 00:18:00,
2013-01-09 19:24:00,75.8,66.9,30.23,ENE,75,0.0,0.0,74,0.00,,,0.00,Wunderground v.1.13,2013-01-10 00:24:00,
2013-01-09 19:30:00,75.9,67.0,30.23,East,82,0.0,0.0,74,0.00,,,0.00,Wunderground v.1.13,2013-01-10 00:30:00,
2013-01-09 19:36:00,76.0,67.1,30.23,East,81,0.0,0.0,74,0.00,,,0.00,Wunderground v.1.13,2013-01-10 00:36:00,
2013-01-09 19:42:00,76.2,66.9,30.23,East,81,0.0,0.0,73,0.00,,,0.00,Wunderground v.1.13,2013-01-10 00:42:00,
2013-01-09 19:48:00,76.3,67.0,30.23,East,82,0.0,0.0,73,0.00,,,0.00,Wunderground v.1.13,2013-01-10 00:48:00,
2013-01-09 19:54:00,76.4,67.1,30.23,SSE,156,0.0,0.0,73,0.00,,,0.00,Wunderground v.1.13,2013-01-10 00:54:00,
2013-01-09 20:00:00,76.5,67.2,30.23,ESE,121,0.0,0.0,73,0.00,,,0.00,Wunderground v.1.13,2013-01-10 01:00:00,
2013-01-09 20:06:00,76.4,67.1,30.23,ESE,107,0.0,0.0,73,0.00,,,0.00,Wunderground v.1.13,2013-01-10 01:06:00,
2013-01-09 20:12:00,76.3,67.4,30.23,ENE,74,0.0,0.0,74,0.00,,,0.00,Wunderground v.1.13,2013-01-10 01:12:00,
2013-01-09 20:18:00,76.1,67.2,30.24,East,98,0.0,0.0,74,0.00,,,0.00,Wunderground v.1.13,2013-01-10 01:18:00,
2013-01-09 20:24:00,75.9,67.4,30.24,ESE,111,0.0,0.0,75,0.00,,,0.00,Wunderground v.1.13,2013-01-10 01:24:00,
2013-01-09 20:30:00,75.7,67.2,30.24,ESE,113,0.0,0.0,75,0.00,,,0.00,Wunderground v.1.13,2013-01-10 01:30:00,
2013-01-09 20:36:00,75.5,67.4,30.24,East,93,0.0,0.0,76,0.00,,,0.00,Wunderground v.1.13,2013-01-10 01:36:00,
2013-01-09 20:42:00,75.4,67.3,30.24,ESE,105,0.0,0.0,76,0.00,,,0.00,Wunderground v.1.13,2013-01-10 01:42:00,
2013-01-09 20:48:00,75.4,67.7,30.24,ESE,103,0.0,2.0,77,0.00,,,0.00,Wunderground v.1.13,2013-01-10 01:48:00,
2013-01-09 20:54:00,75.3,67.6,30.25,ESE,109,0.0,0.0,77,0.00,,,0.00,Wunderground v.1.13,2013-01-10 01:54:00,
2013-01-09 21:00:00,75.2,67.9,30.25,East,92,0.0,0.0,78,0.00,,,0.00,Wunderground v.1.13,2013-01-10 02:00:00,
2013-01-09 21:06:00,75.0,68.0,30.25,ESE,105,1.0,1.0,79,0.00,,,0.00,Wunderground v.1.13,2013-01-10 02:06:00,
2013-01-09 21:12:00,74.8,68.2,30.25,ESE,115,0.0,0.0,80,0.00,,,0.00,Wunderground v.1.13,2013-01-10 02:12:00,
2013-01-09 21:18:00,74.7,68.5,30.25,ESE,114,0.0,0.0,81,0.00,,,0.00,Wunderground v.1.13,2013-01-10 02:18:00,
2013-01-09 21:24:00,74.6,68.7,30.26,East,94,0.0,0.0,82,0.00,,,0.00,Wunderground v.1.13,2013-01-10 02:24:00,
2013-01-09 21:30:00,74.5,68.6,30.26,ESE,106,0.0,0.0,82,0.00,,,0.00,Wunderground v.1.13,2013-01-10 02:30:00,
2013-01-09 21:36:00,74.3,68.4,30.26,ESE,107,0.0,0.0,82,0.00,,,0.00,Wunderground v.1.13,2013-01-10 02:36:00,
2013-01-09 21:42:00,74.1,68.6,30.26,ESE,106,0.0,0.0,83,0.00,,,0.00,Wunderground v.1.13,2013-01-10 02:42:00,
2013-01-09 21:48:00,73.9,68.8,30.27,East,97,0.0,0.0,84,0.00,,,0.00,Wunderground v.1.13,2013-01-10 02:48:00,
2013-01-09 21:54:00,73.7,68.6,30.27,East,96,0.0,0.0,84,0.00,,,0.00,Wunderground v.1.13,2013-01-10 02:54:00,
2013-01-09 22:00:00,73.3,68.5,30.27,East,97,0.0,0.0,85,0.00,,,0.00,Wunderground v.1.13,2013-01-10 03:00:00,
2013-01-09 22:06:00,72.9,68.5,30.27,East,96,0.0,0.0,86,0.00,,,0.00,Wunderground v.1.13,2013-01-10 03:06:00,
2013-01-09 22:12:00,72.7,68.6,30.28,East,96,0.0,0.0,87,0.00,,,0.00,Wunderground v.1.13,2013-01-10 03:12:00,
2013-01-09 22:18:00,72.5,68.4,30.28,East,97,0.0,0.0,87,0.00,,,0.00,Wunderground v.1.13,2013-01-10 03:18:00,
2013-01-09 22:24:00,72.3,68.5,30.28,East,97,0.0,0.0,88,0.00,,,0.00,Wunderground v.1.13,2013-01-10 03:24:00,
2013-01-09 22:30:00,72.1,68.3,30.28,East,97,0.0,0.0,88,0.00,,,0.00,Wunderground v.1.13,2013-01-10 03:30:00,
2013-01-09 22:36:00,71.9,68.5,30.28,East,96,0.0,0.0,89,0.00,,,0.00,Wunderground v.1.13,2013-01-10 03:36:00,
2013-01-09 22:42:00,71.8,68.4,30.28,East,97,0.0,0.0,89,0.00,,,0.00,Wunderground v.1.13,2013-01-10 03:42:00,
2013-01-09 22:48:00,71.8,68.7,30.28,East,97,0.0,0.0,90,0.00,,,0.00,Wunderground v.1.13,2013-01-10 03:48:00,
2013-01-09 22:54:00,71.8,68.7,30.28,East,97,0.0,0.0,90,0.00,,,0.00,Wunderground v.1.13,2013-01-10 03:54:00,
2013-01-09 23:00:00,71.9,68.8,30.28,East,97,0.0,0.0,90,0.00,,,0.00,Wunderground v.1.13,2013-01-10 04:00:00,
2013-01-09 23:06:00,71.8,68.7,30.28,East,96,0.0,0.0,90,0.00,,,0.00,Wunderground v.1.13,2013-01-10 04:06:00,
2013-01-09 23:12:00,71.8,69.0,30.28,East,97,0.0,0.0,91,0.00,,,0.00,Wunderground v.1.13,2013-01-10 04:12:00,
2013-01-09 23:18:00,71.7,68.9,30.28,East,96,0.0,0.0,91,0.00,,,0.00,Wunderground v.1.13,2013-01-10 04:18:00,
2013-01-09 23:24:00,71.6,68.8,30.28,East,97,0.0,0.0,91,0.00,,,0.00,Wunderground v.1.13,2013-01-10 04:24:00,
2013-01-09 23:30:00,71.6,68.8,30.28,East,97,0.0,0.0,91,0.00,,,0.00,Wunderground v.1.13,2013-01-10 04:30:00,
2013-01-09 23:36:00,71.6,69.2,30.28,East,97,0.0,0.0,92,0.00,,,0.00,Wunderground v.1.13,2013-01-10 04:36:00,
2013-01-09 23:42:00,71.5,69.1,30.28,East,97,0.0,0.0,92,0.00,,,0.00,Wunderground v.1.13,2013-01-10 04:42:00,
2013-01-09 23:48:00,71.5,69.1,30.28,East,96,0.0,0.0,92,0.00,,,0.00,Wunderground v.1.13,2013-01-10 04:48:00,
2013-01-09 23:54:00,71.4,69.0,30.28,East,97,0.0,0.0,92,0.00,,,0.00,Wunderground v.1.13,2013-01-10 04:54:00,